Tehachapi, CA

4:08 PM PDT on April 25, 2018 (GMT -0700)
Tehachapi Municipal

Weather History for KTSP - April, 2012

Change the Weather History Date:

Monday, April 30, 2012

  Actual Average Record
Temperature  
Mean Temperature 57 °F -  
Max Temperature 73 °F 67 °F 80 °F (2015)
Min Temperature 41 °F 40 °F 32 °F (2017)
Degree Days  
Heating Degree Days 8    
Growing Degree Days 7 (Base 50)    
Moisture  
Dew Point 40 °F    
Average Humidity 48    
Maximum Humidity 87    
Minimum Humidity 22    
Precipitation  
Precipitation 0.00 in - - ()
Sea Level Pressure  
Sea Level Pressure 30.03 in    
Wind  
Wind Speed 8 mph (WNW)    
Max Wind Speed 23 mph    
Max Gust Speed 30 mph    
Visibility 8 miles    
Events      
Averages and records for this station are not official NWS values.
T = Trace of Precipitation, MM = Missing Value Source: NWS Daily Summary

Daily Weather History Graph

Daily Weather History Graph

Search for Another Location

Airport or City:

Astronomy

Apr. 30, 2012 Rise Set
Actual Time 6:03 AM PDT 7:39 PM PDT
Civil Twilight 5:36 AM PDT 8:06 PM PDT
Nautical Twilight 5:03 AM PDT 8:38 PM PDT
Astronomical Twilight 4:29 AM PDT 9:13 PM PDT
Moon 1:54 PM PDT (4/30) 2:16 AM PDT (4/30)
Length of Visible Light 14h 30m
Length of Day
13h 36m
Waxing Gibbous, 65% of the Moon is Illuminated
Apr 30
Waxing Gibbous
May 5
Full
May 12
Last Quarter
May 20
New
May 28
First Quarter

Hourly Weather History & Observations

Time (PDT) Temp. Dew Point Humidity Pressure Visibility Wind Dir Wind Speed Gust Speed Precip Events Conditions
12:35 AM 50.0 °F 46.4 °F 87% 30.07 in 8.0 mi Calm Calm - N/A   Clear
12:55 AM 51.8 °F 46.4 °F 82% 30.07 in 7.0 mi Calm Calm - N/A   Clear
1:15 AM 53.6 °F 46.4 °F 77% 30.07 in 8.0 mi WNW 3.5 mph - N/A   Clear
1:35 AM - - N/A% - 8.0 mi North - - N/A   Unknown
1:55 AM 50.0 °F 46.4 °F 87% 30.06 in 8.0 mi Calm Calm - N/A   Unknown
2:15 AM 50.0 °F 46.4 °F 87% 30.06 in 7.0 mi WNW 3.5 mph - N/A   Clear
2:35 AM - - N/A% - - North - - N/A   Unknown
2:55 AM - - N/A% - - North - - N/A   Unknown
3:15 AM - - N/A% - - North - - N/A   Unknown
3:35 AM - - N/A% - - North - - N/A   Unknown
3:55 AM - - N/A% - - North - - N/A   Unknown
4:15 AM - - N/A% - - North - - N/A   Unknown
4:55 AM 48.2 °F 41.0 °F 76% 30.05 in 8.0 mi Calm Calm - N/A   Unknown
5:15 AM 41.0 °F 37.4 °F 87% 30.05 in 8.0 mi Calm Calm - N/A   Clear
5:35 AM 41.0 °F 37.4 °F 87% 30.05 in 8.0 mi Calm Calm - N/A   Clear
5:55 AM 41.0 °F 37.4 °F 87% 30.05 in 7.0 mi Calm Calm - N/A   Clear
6:15 AM 41.0 °F 37.4 °F 87% 30.05 in 6.0 mi Calm Calm - N/A   Clear
6:35 AM 41.0 °F 37.4 °F 87% 30.06 in 7.0 mi Calm Calm - N/A   Clear
6:55 AM 44.6 °F 41.0 °F 87% 30.06 in 6.0 mi Calm Calm - N/A   Clear
7:15 AM 48.2 °F 42.8 °F 82% 30.06 in 5.0 mi Calm Calm - N/A   Haze
7:35 AM 50.0 °F 44.6 °F 82% 30.07 in 5.0 mi Calm Calm - N/A   Haze
7:55 AM 55.4 °F 46.4 °F 72% 30.07 in 6.0 mi Calm Calm - N/A   Haze
8:15 AM 60.8 °F 48.2 °F 63% 30.07 in 7.0 mi NW 8.1 mph - N/A   Clear
8:35 AM 64.4 °F 44.6 °F 49% 30.07 in 8.0 mi NW 9.2 mph - N/A   Clear
8:55 AM 64.4 °F 44.6 °F 49% 30.08 in 8.0 mi NW 11.5 mph - N/A   Clear
9:15 AM 66.2 °F 44.6 °F 46% 30.07 in 8.0 mi NNW 10.4 mph - N/A   Clear
9:35 AM 66.2 °F 44.6 °F 46% 30.08 in 8.0 mi NNW 9.2 mph - N/A   Clear
9:55 AM 68.0 °F 44.6 °F 43% 30.08 in 7.0 mi NW 10.4 mph 21.9 mph N/A   Clear
10:15 AM 68.0 °F 44.6 °F 43% 30.08 in 8.0 mi NNW 13.8 mph 19.6 mph N/A   Clear
10:35 AM 68.0 °F 44.6 °F 43% 30.08 in 9.0 mi NW 12.7 mph - N/A   Clear
10:55 AM 69.8 °F 44.6 °F 40% 30.08 in 8.0 mi WNW 10.4 mph - N/A   Clear
11:15 AM 71.6 °F 44.6 °F 38% 30.08 in 8.0 mi NW 15.0 mph - N/A   Clear
11:35 AM 71.6 °F 41.0 °F 33% 30.07 in 9.0 mi WNW 15.0 mph 19.6 mph N/A   Clear
11:55 AM 71.6 °F 42.8 °F 35% 30.07 in 9.0 mi NW 15.0 mph 20.7 mph N/A   Clear
12:15 PM 73.4 °F 39.2 °F 29% 30.07 in 8.0 mi NW 13.8 mph 23.0 mph N/A   Clear
12:55 PM 73.4 °F 41.0 °F 31% 30.06 in 8.0 mi NW 16.1 mph 25.3 mph N/A   Clear
1:15 PM 73.4 °F 37.4 °F 27% 30.06 in 8.0 mi NW 21.9 mph 27.6 mph N/A   Clear
1:55 PM 73.4 °F 39.2 °F 29% 30.05 in 8.0 mi NW 17.3 mph 26.5 mph N/A   Clear
2:15 PM 73.4 °F 35.6 °F 25% 30.05 in 8.0 mi NW 23.0 mph 29.9 mph N/A   Clear
2:35 PM 73.4 °F 32.0 °F 22% 30.04 in 8.0 mi NW 23.0 mph 28.8 mph N/A   Clear
2:55 PM 73.4 °F 35.6 °F 25% 30.03 in 9.0 mi NNW 19.6 mph 25.3 mph N/A   Clear
3:15 PM 73.4 °F 33.8 °F 23% 30.02 in 8.0 mi NW 18.4 mph 28.8 mph N/A   Clear
3:35 PM 73.4 °F 35.6 °F 25% 30.02 in 8.0 mi NW 21.9 mph 29.9 mph N/A   Clear
3:55 PM 73.4 °F 37.4 °F 27% 30.01 in 8.0 mi NW 19.6 mph 27.6 mph N/A   Clear
4:15 PM 73.4 °F 39.2 °F 29% 30.01 in 7.0 mi NW 17.3 mph 27.6 mph N/A   Clear
4:35 PM 73.4 °F 41.0 °F 31% 30.01 in 7.0 mi NW 19.6 mph 27.6 mph N/A   Clear
4:55 PM 73.4 °F 39.2 °F 29% 30.00 in 7.0 mi NW 17.3 mph 24.2 mph N/A   Clear
5:15 PM 71.6 °F 35.6 °F 27% 30.00 in 8.0 mi NW 18.4 mph 27.6 mph N/A   Clear
5:35 PM 71.6 °F 35.6 °F 27% 29.99 in 8.0 mi WNW 18.4 mph 26.5 mph N/A   Clear
5:55 PM 71.6 °F 37.4 °F 29% 29.99 in 9.0 mi NW 20.7 mph 27.6 mph N/A   Clear
6:15 PM 69.8 °F 39.2 °F 33% 29.99 in 9.0 mi NW 17.3 mph 26.5 mph N/A   Clear
6:35 PM 68.0 °F 39.2 °F 35% 29.99 in 8.0 mi NW 17.3 mph 24.2 mph N/A   Clear
6:55 PM 68.0 °F 39.2 °F 35% 29.99 in 8.0 mi WNW 15.0 mph 23.0 mph N/A   Clear
7:15 PM 66.2 °F 39.2 °F 37% 29.99 in 8.0 mi WNW 11.5 mph - N/A   Clear
7:35 PM 66.2 °F 39.2 °F 37% 29.99 in 8.0 mi West 12.7 mph 18.4 mph N/A   Clear
7:55 PM 64.4 °F 39.2 °F 40% 29.99 in 8.0 mi West 13.8 mph - N/A   Clear
8:15 PM 64.4 °F 37.4 °F 37% 29.99 in 10.0 mi West 11.5 mph - N/A   Clear
8:35 PM 62.6 °F 39.2 °F 42% 29.99 in 10.0 mi West 10.4 mph - N/A   Clear
8:55 PM 60.8 °F 39.2 °F 45% 29.99 in 10.0 mi WNW 10.4 mph - N/A   Clear
9:15 PM 60.8 °F 39.2 °F 45% 30.00 in 10.0 mi West 9.2 mph - N/A   Clear
9:35 PM 59.0 °F 39.2 °F 48% 30.00 in 9.0 mi West 9.2 mph - N/A   Clear
9:55 PM 59.0 °F 37.4 °F 45% 30.00 in 10.0 mi West 10.4 mph - N/A   Clear
10:15 PM 59.0 °F 35.6 °F 42% 30.00 in 10.0 mi WNW 9.2 mph 16.1 mph N/A   Clear
10:35 PM 59.0 °F 35.6 °F 42% 30.00 in 10.0 mi West 12.7 mph - N/A   Clear
10:55 PM 59.0 °F 35.6 °F 42% 29.99 in 10.0 mi West 10.4 mph - N/A   Clear
11:15 PM 59.0 °F 35.6 °F 42% 29.99 in 10.0 mi West 13.8 mph - N/A   Clear
11:35 PM 59.0 °F 37.4 °F 45% 29.98 in 10.0 mi West 17.3 mph - N/A   Clear
11:55 PM 59.0 °F 39.2 °F 48% 29.98 in 10.0 mi West 11.5 mph - N/A   Clear